User: anonymous   Login
Location: Brotuna
(46.2000°N, 22.6000°E)
Time: 10:36:47
(UTC+00:00)
Language:

IRIDIUM 106 - Orbit

View from above orbital plane
View from above orbital plane
View from above satellite
View from above satellite

Ground track
Ground track

The orbit data is extracted from the following two-line orbital elements,

1 41917U 17003A   20190.78294664  .00000071  00000-0  18339-4 0  9997
2 41917  86.3975 275.0322 0002221 104.4321 255.7121 14.34216099182266
Epoch (UTC): 08 July 2020 18:47:26
Eccentricity: 0.0002221
inclination: 86.3975°
perigee height: 776 km
apogee height: 779 km
right ascension of ascending node: 275.0322°
argument of perigee: 104.4321°
revolutions per day: 14.34216099
mean anomaly at epoch: 255.7121°
orbit number at epoch: 18226

The dashed part of the orbit path shows where the satellite is in the earth's shadow,  

DLR